Regional Weather Roundup
Issued by NWS

Home | Current Version | Previous Version | Graphics & Text | Print | Product List | Glossary On
Versions: 1 2 3 4 5 6 7 8 9 10 11 12 13 14 15 16 17 18 19 20 21 22 23 24 25 26 27 28 29 30 31 32 33 34 35 36 37 38 39 40 41 42 43 44 45 46 47 48 49 50
000
ASUS45 KABQ 230801
RWRNM
NEW MEXICO REGIONAL WEATHER ROUNDUP
NATIONAL WEATHER SERVICE ALBUQUERQUE NM
200 AM MDT TUE MAY 23 2017

NOTE: "FAIR" MEANS FEW OR NO CLOUDS BELOW 12,000 FEET AGL WITH NO
       SIGNIFICANT WEATHER OR OBSTRUCTIONS TO VISION.

      THIS PRODUCT IS RELEASED AS TWO VERSIONS.  ONE VERSION NEAR
      THE TOP OF THE HOUR CONTAINING PRELIMINARY DATA FROM ALBUQUERQUE
      AND OTHER STATIONS.  A FINAL VERSION WITH ADDITIONAL DATA IS
      ISSUED ABOUT 10 MINUTES AFTER THE HOUR.

NMZ501-503-504-510>518-230900-
NORTHWEST PLATEAU/NORTHCENTRAL MOUNTAINS

CITY           SKY/WX    TMP DP  RH WIND       PRES   REMARKS
FARMINGTON     MOCLDY    46  29  51 N5        30.11R
LOS ALAMOS     FAIR      53  30  41 NW6       30.19S
SANTA FE       FAIR      53  45  74 SE10      30.14S
TAOS           FAIR      48  30  49 E13       30.18S
ANGEL FIRE     CLOUDY    41  36  81 N3        30.25F

$$
NMZ402-403-502-505>509-230900-
WESTCENTRAL MOUNTAINS/SOUTHWEST MOUNTAINS

CITY           SKY/WX    TMP DP  RH WIND       PRES   REMARKS
GALLUP         FAIR      38  23  55 E5        30.20F WCI  34
GRANTS         FAIR      45  21  38 N6        30.20S
SILVER CITY    FAIR      56  17  22 W10       30.10S

$$
NMZ407-409-411-412-230900-
SOUTHERN DESERTS

CITY           SKY/WX    TMP DP  RH WIND       PRES   REMARKS
DEMING         FAIR      66  19  16 CALM      30.02S
LAS CRUCES     FAIR      71  19  14 N14       30.02F
ALAMOGORDO     FAIR      59  18  20 N12       29.99S
T OR C         FAIR      64  19  17 N10       30.07R

$$
NMZ519>523-230900-
CENTRAL VALLEYS/CENTRAL HIGHLANDS

CITY           SKY/WX    TMP DP  RH WIND       PRES   REMARKS
ALBUQUERQUE    FAIR      60  26  27 CALM      30.09S
DOUBLE EAGLE   FAIR      49  27  41 W13       30.12S
MORIARTY ARPT  FAIR      54  46  76 E15G22    30.16S
CLINES CORNERS CLOUDY    48  42  80 E15       30.20F
BELEN          FAIR      52  24  33 CALM      30.09S
SOCORRO        NOT AVBL

$$
NMZ524>526-539-540-230900-
SOUTHCENTRAL MOUNTAINS

CITY           SKY/WX    TMP DP  RH WIND       PRES   REMARKS
RUIDOSO        NOT AVBL

$$
NMZ527>531-230900-
NORTHEAST HIGHLANDS/NORTHEAST PLAINS

CITY           SKY/WX    TMP DP  RH WIND       PRES   REMARKS
LAS VEGAS      CLOUDY    43  39  86 NE15      30.23S
RATON          CLOUDY    42  33  70 N24       30.22S
CLAYTON        CLOUDY    43  39  86 N12       30.20S

$$
NMZ532>537-230900-
EASTCENTRAL PLAINS

CITY           SKY/WX    TMP DP  RH WIND       PRES   REMARKS
SANTA ROSA     CLOUDY    53  46  78 NE12G17   30.15S
TUCUMCARI      HVY RAIN  53  48  83 NE16G25   30.16R
CANNON AFB     MOCLDY    53  53 100 NE17      30.12R
CLOVIS AIRPORT FAIR      52  45  76 N15       30.11F

$$
NMZ028-029-538-230900-
SOUTHEAST PLAINS

CITY           SKY/WX    TMP DP  RH WIND       PRES   REMARKS
ROSWELL        FAIR      57  49  74 N8        30.02S
ARTESIA        FAIR      57  52  82 CALM      30.00F
CARLSBAD       NOT AVBL
HOBBS          FAIR      54  50  87 W6        30.01F


$$




USA.gov is the U.S. government's official web portal to all federal, state and local government web resources and services.